DW6016 Weather Reports


Display with metric or nautical units.
time (UTC)temp
F
wind
direction
speed
MPH
gust
MPH
rain 1hr
in
rain 24hr
in
rain mn
in
humidity
%
barometer
mb
20260510135315 53 321 0.0 0.0 0.00 0.00 0.00 95 1018.9
20260510134813 53 321 0.0 0.0 0.00 0.00 0.00 95 1018.7
20260510134310 53 321 0.0 0.0 0.00 0.00 0.00 95 1018.9
20260510133806 52 320 0.0 0.0 0.00 0.00 0.00 96 1018.7
20260510133302 52 320 0.0 0.0 0.00 0.00 0.00 96 1018.8
20260510132757 52 320 0.0 0.0 0.00 0.00 0.00 96 1018.7
20260510132256 52 320 0.0 0.0 0.00 0.00 0.00 95 1018.8
20260510131752 52 320 0.0 0.0 0.00 0.00 0.00 95 1018.7
20260510131251 52 320 0.0 0.0 0.00 0.00 0.00 95 1018.7
20260510130746 52 320 0.0 0.0 0.00 0.00 0.00 95 1018.7
20260510130244 52 323 0.0 0.0 0.00 0.00 0.00 95 1018.4
20260510125740 52 297 0.0 0.0 0.00 0.00 0.00 95 1018.7
20260510125236 52 297 0.0 0.0 0.00 0.00 0.00 94 1018.8
20260510124733 53 297 0.0 0.0 0.00 0.00 0.00 94 1019.0
20260510124231 53 297 0.0 0.0 0.00 0.00 0.00 94 1018.8
20260510123725 53 297 0.0 0.0 0.00 0.00 0.00 94 1019.1
20260510123222 53 298 0.0 0.0 0.00 0.00 0.00 95 1018.9
20260510122718 53 297 0.0 0.0 0.00 0.00 0.00 95 1018.6
20260510122215 53 296 0.0 0.0 0.00 0.00 0.00 95 1018.7
20260510121711 52 302 0.0 0.0 0.00 0.00 0.00 95 1018.8
20260510121209 52 309 0.0 0.0 0.00 0.00 0.00 96 1018.9
20260510120705 52 310 0.0 0.0 0.00 0.00 0.00 96 1018.9
20260510120202 52 304 0.0 0.0 0.00 0.00 0.00 95 1018.7
20260510115658 53 304 0.0 0.0 0.00 0.00 0.00 95 1018.3
20260510115156 53 304 0.0 0.0 0.00 0.00 0.00 95 1018.6
20260510114651 53 303 0.0 0.0 0.00 0.00 0.00 95 1018.5
20260510114148 53 304 0.0 0.0 0.00 0.00 0.00 95 1018.4
20260510113643 53 308 1.0 1.0 0.00 0.00 0.00 95 1018.4
20260510113140 53 305 0.0 0.0 0.00 0.00 0.00 95 1018.5
20260510112637 53 304 0.0 0.0 0.00 0.00 0.00 95 1018.7
20260510112134 53 311 0.0 0.0 0.00 0.00 0.00 95 1018.3
20260510111630 53 296 0.0 1.0 0.00 0.00 0.00 96 1018.4
20260510111126 53 296 1.0 1.0 0.00 0.00 0.00 96 1018.3
20260510110622 53 296 0.0 0.0 0.00 0.00 0.00 96 1018.1
20260510110119 53 296 0.0 0.0 0.00 0.00 0.00 96 1018.3
20260510105615 53 297 0.0 0.0 0.00 0.00 0.00 95 1018.1
20260510105109 53 297 0.0 0.0 0.00 0.00 0.00 95 1018.1
20260510104606 53 297 0.0 0.0 0.00 0.00 0.00 95 1017.9
20260510104103 53 297 0.0 0.0 0.00 0.00 0.00 94 1017.9
20260510103600 53 297 0.0 0.0 0.00 0.00 0.00 95 1017.9
20260510103056 53 299 0.0 0.0 0.00 0.00 0.00 95 1017.6
20260510102551 53 299 0.0 0.0 0.00 0.00 0.00 93 1017.7
20260510102047 54 299 0.0 0.0 0.00 0.00 0.00 93 1017.8
20260510101545 53 299 0.0 0.0 0.00 0.00 0.00 93 1017.6
20260510101044 53 299 1.0 1.0 0.00 0.00 0.00 94 1017.4
20260510100539 53 299 0.0 0.0 0.00 0.00 0.00 94 1017.1
20260510100037 52 299 0.0 1.0 0.00 0.00 0.00 94 1017.1
20260510095533 52 299 0.0 0.0 0.00 0.00 0.00 94 1017.2
20260510095032 52 299 0.0 0.0 0.00 0.00 0.00 95 1016.9
20260510094527 52 299 0.0 0.0 0.00 0.00 0.00 94 1016.9
20260510094023 52 299 0.0 0.0 0.00 0.00 0.00 94 1017.2
20260510093518 52 299 0.0 0.0 0.00 0.00 0.00 93 1017.2
20260510093015 52 299 0.0 0.0 0.00 0.00 0.00 93 1017.1
20260510092513 53 299 0.0 0.0 0.00 0.00 0.00 92 1017.3
20260510092012 53 299 0.0 0.0 0.00 0.00 0.00 92 1017.3
20260510091509 53 299 0.0 0.0 0.00 0.00 0.00 92 1017.1
20260510091005 53 299 0.0 0.0 0.00 0.00 0.00 91 1017.1
20260510090503 53 299 0.0 0.0 0.00 0.00 0.00 91 1017.2
20260510085957 53 299 0.0 0.0 0.00 0.00 0.00 90 1017.0
20260510085453 53 299 0.0 0.0 0.00 0.00 0.00 90 1017.1
20260510084949 54 299 0.0 0.0 0.00 0.00 0.00 89 1017.2
20260510084446 54 299 0.0 0.0 0.00 0.00 0.00 89 1016.9
20260510083943 54 299 0.0 0.0 0.00 0.00 0.00 88 1016.8
20260510083439 54 299 0.0 0.0 0.00 0.00 0.00 88 1016.9
20260510082934 55 299 0.0 0.0 0.00 0.00 0.00 87 1016.8
20260510082433 55 299 0.0 0.0 0.00 0.00 0.00 87 1016.8
20260510081931 55 299 0.0 0.0 0.00 0.00 0.00 86 1016.8
20260510081427 55 299 0.0 0.0 0.00 0.00 0.00 86 1016.8
20260510080924 55 299 0.0 0.0 0.00 0.00 0.00 86 1016.9
20260510080423 55 299 0.0 0.0 0.00 0.00 0.00 85 1017.0
20260510075920 56 299 0.0 0.0 0.00 0.00 0.00 84 1016.6
20260510075418 56 299 0.0 0.0 0.00 0.00 0.00 83 1016.7
20260510074914 57 299 0.0 0.0 0.00 0.00 0.00 82 1017.0
20260510074412 57 299 0.0 0.0 0.00 0.00 0.00 81 1016.8
20260510073908 57 299 0.0 0.0 0.00 0.00 0.00 81 1016.9
20260510073403 57 299 0.0 0.0 0.00 0.00 0.00 81 1016.8
20260510072900 57 299 0.0 0.0 0.00 0.00 0.00 81 1016.7
20260510072357 58 299 0.0 0.0 0.00 0.00 0.00 79 1016.9
20260510071852 58 299 0.0 0.0 0.00 0.00 0.00 78 1016.7
20260510071349 58 299 0.0 0.0 0.00 0.00 0.00 78 1016.8
20260510070848 59 299 0.0 0.0 0.00 0.00 0.00 77 1016.6
20260510070344 59 299 0.0 0.0 0.00 0.00 0.00 77 1016.9
20260510065844 59 299 0.0 0.0 0.00 0.00 0.00 75 1016.8
20260510065341 60 299 0.0 0.0 0.00 0.00 0.00 75 1016.7
20260510064838 60 299 0.0 0.0 0.00 0.00 0.00 75 1016.6
20260510064336 60 299 0.0 0.0 0.00 0.00 0.00 75 1016.6
20260510063832 60 299 0.0 0.0 0.00 0.00 0.00 74 1016.7
20260510063329 60 299 0.0 0.0 0.00 0.00 0.00 73 1016.6
20260510062825 60 299 0.0 0.0 0.00 0.00 0.00 72 1016.6
20260510062321 61 299 0.0 0.0 0.00 0.00 0.00 72 1016.5
20260510061816 61 299 0.0 0.0 0.00 0.00 0.00 71 1016.5
20260510061314 62 299 0.0 0.0 0.00 0.00 0.00 70 1016.5
20260510060809 62 299 0.0 0.0 0.00 0.00 0.00 68 1016.6
20260510060307 63 299 0.0 0.0 0.00 0.00 0.00 67 1016.7
20260510055803 64 300 0.0 0.0 0.00 0.00 0.00 66 1016.4
20260510055306 64 310 0.0 0.0 0.00 0.00 0.00 64 1016.5
20260510054801 65 277 0.0 0.0 0.00 0.00 0.00 63 1016.4
20260510054257 65 276 0.0 0.0 0.00 0.00 0.00 63 1016.5
20260510053752 65 284 1.0 1.0 0.00 0.00 0.00 62 1016.5
20260510053248 65 289 0.0 0.0 0.00 0.00 0.00 63 1016.3
20260510052744 65 254 1.0 1.0 0.00 0.00 0.00 63 1016.4
20260510052240 65 307 1.0 1.0 0.00 0.00 0.00 63 1016.6
20260510051736 66 292 0.0 0.0 0.00 0.00 0.00 62 1016.5
20260510051233 66 311 0.0 1.0 0.00 0.00 0.00 62 1016.7
20260510050730 66 318 0.0 0.0 0.00 0.00 0.00 62 1016.6
20260510050227 66 293 0.0 1.0 0.00 0.00 0.00 62 1016.7
20260510045724 66 305 0.0 0.0 0.00 0.00 0.00 62 1016.4
20260510045220 67 300 0.0 1.0 0.00 0.00 0.00 62 1016.2
20260510044717 66 310 1.0 2.0 0.00 0.00 0.00 61 1016.4
20260510044215 67 296 0.0 0.0 0.00 0.00 0.00 61 1016.2
20260510043710 66 301 0.0 0.0 0.00 0.00 0.00 61 1016.4
20260510043207 67 294 0.0 0.0 0.00 0.00 0.00 61 1016.3
20260510042704 67 292 0.0 0.0 0.00 0.00 0.00 61 1016.2
20260510042200 67 316 0.0 0.0 0.00 0.00 0.00 60 1016.0
20260510041657 67 308 0.0 0.0 0.00 0.00 0.00 60 1016.1
20260510041154 67 299 0.0 1.0 0.00 0.00 0.00 60 1015.9
20260510040651 67 312 1.0 1.0 0.00 0.00 0.00 59 1015.6
20260510040148 68 301 0.0 1.0 0.00 0.00 0.00 58 1015.7
20260510035643 68 297 0.0 1.0 0.00 0.00 0.00 57 1015.8
20260510035139 68 308 0.0 0.0 0.00 0.00 0.00 58 1015.8
20260510034636 68 299 0.0 0.0 0.00 0.00 0.00 56 1015.6
20260510034133 68 313 0.0 0.0 0.00 0.00 0.00 56 1015.5
20260510033629 68 306 0.0 0.0 0.00 0.00 0.00 55 1015.7
20260510033127 68 291 0.0 1.0 0.00 0.00 0.00 55 1015.5
20260510032623 69 304 1.0 1.0 0.00 0.00 0.00 55 1015.5
20260510032119 69 304 0.0 0.0 0.00 0.00 0.00 55 1015.5
20260510031614 69 293 0.0 1.0 0.00 0.00 0.00 54 1015.6
20260510031111 69 315 0.0 0.0 0.00 0.00 0.00 53 1015.4
20260510030605 70 295 0.0 1.0 0.00 0.00 0.00 53 1015.4
20260510030103 70 292 0.0 0.0 0.00 0.00 0.00 53 1015.5
20260510025600 71 292 0.0 0.0 0.00 0.00 0.00 51 1015.6
20260510025058 71 302 0.0 0.0 0.00 0.00 0.00 51 1015.5
20260510024554 71 307 1.0 2.0 0.00 0.00 0.00 50 1015.3
20260510024050 72 301 0.0 0.0 0.00 0.00 0.00 49 1015.6
20260510023547 72 302 0.0 0.0 0.00 0.00 0.00 48 1015.5
20260510023044 72 317 1.0 1.0 0.00 0.00 0.00 47 1015.5
20260510022543 72 298 0.0 0.0 0.00 0.00 0.00 46 1015.5
20260510022038 73 243 1.0 1.0 0.00 0.00 0.00 46 1015.7
20260510021535 73 300 0.0 1.0 0.00 0.00 0.00 43 1015.4
20260510021032 73 299 0.0 0.0 0.00 0.00 0.00 41 1015.6
20260510020526 73 259 1.0 1.0 0.00 0.00 0.00 41 1015.7
20260510020022 73 287 0.0 0.0 0.00 0.00 0.00 41 1015.6
20260510015518 74 303 0.0 0.0 0.00 0.00 0.00 39 1015.5
20260510015014 74 303 0.0 0.0 0.00 0.00 0.00 41 1015.5
20260510014511 74 304 0.0 1.0 0.00 0.00 0.00 42 1015.5
20260510014008 75 302 1.0 1.0 0.00 0.00 0.00 41 1015.6
20260510013502 75 293 0.0 1.0 0.00 0.00 0.00 40 1015.8
20260510012958 76 302 0.0 0.0 0.00 0.00 0.00 41 1015.6
20260510012447 76 291 1.0 1.0 0.00 0.00 0.00 40 1015.8
20260510011942 76 307 0.0 0.0 0.00 0.00 0.00 40 1016.0
20260510011437 76 302 0.0 1.0 0.00 0.00 0.00 38 1016.0
20260510010934 77 303 0.0 1.0 0.00 0.00 0.00 36 1015.7
20260510010431 77 298 1.0 1.0 0.00 0.00 0.00 35 1015.9
20260510005928 77 302 1.0 1.0 0.00 0.00 0.00 33 1015.6
20260510005424 77 302 0.0 1.0 0.00 0.00 0.00 32 1015.8
20260510004921 77 304 0.0 0.0 0.00 0.00 0.00 31 1015.7
20260510004419 77 307 1.0 2.0 0.00 0.00 0.00 30 1015.9
20260510003916 78 304 0.0 1.0 0.00 0.00 0.00 29 1015.9
20260510003414 78 305 1.0 1.0 0.00 0.00 0.00 31 1015.7
20260510002912 78 293 2.0 3.0 0.00 0.00 0.00 29 1015.9
20260510002410 78 296 0.0 1.0 0.00 0.00 0.00 30 1016.0
20260510001906 78 306 0.0 0.0 0.00 0.00 0.00 32 1016.2
20260510001404 78 307 1.0 1.0 0.00 0.00 0.00 32 1016.0
20260510000900 78 306 1.0 1.0 0.00 0.00 0.00 31 1015.8
20260510000357 78 300 1.0 1.0 0.00 0.00 0.00 29 1016.0
20260509235853 78 307 1.0 1.0 0.00 0.00 0.00 31 1016.0
20260509235350 78 312 0.0 1.0 0.00 0.00 0.00 33 1016.1
20260509234846 78 309 2.0 2.0 0.00 0.00 0.00 29 1016.2
20260509234343 78 298 0.0 1.0 0.00 0.00 0.00 29 1016.1
20260509233842 78 303 0.0 0.0 0.00 0.00 0.00 30 1016.3
20260509233339 78 294 1.0 1.0 0.00 0.00 0.00 31 1016.3
20260509232834 78 313 0.0 0.0 0.00 0.00 0.00 29 1016.2
20260509232333 77 310 0.0 0.0 0.00 0.00 0.00 27 1016.2
20260509231828 77 293 0.0 0.0 0.00 0.00 0.00 31 1016.5
20260509231325 78 293 1.0 1.0 0.00 0.00 0.00 28 1016.5
20260509230823 77 306 0.0 1.0 0.00 0.00 0.00 31 1016.6
20260509230320 78 300 0.0 1.0 0.00 0.00 0.00 30 1016.6
20260509225815 77 296 0.0 1.0 0.00 0.00 0.00 33 1017.0
20260509225312 76 297 1.0 1.0 0.00 0.00 0.00 34 1016.8
20260509224808 77 298 2.0 2.0 0.00 0.00 0.00 31 1017.1
20260509224305 76 312 2.0 2.0 0.00 0.00 0.00 30 1017.1
20260509223801 76 347 0.0 1.0 0.00 0.00 0.00 30 1017.0
20260509223258 76 332 2.0 2.0 0.00 0.00 0.00 34 1017.1
20260509222755 76 293 3.0 3.0 0.00 0.00 0.00 33 1017.4
20260509222250 75 106 1.0 2.0 0.00 0.00 0.00 31 1017.4
20260509221746 75 283 2.0 2.0 0.00 0.00 0.00 29 1017.6
20260509221243 75 286 1.0 1.0 0.00 0.00 0.00 34 1017.7
20260509220739 75 318 0.0 1.0 0.00 0.00 0.00 36 1017.9
20260509220236 75 316 0.0 1.0 0.00 0.00 0.00 35 1017.6
20260509215731 74 299 1.0 1.0 0.00 0.00 0.00 37 1017.7
20260509215228 74 308 0.0 0.0 0.00 0.00 0.00 38 1017.8
20260509214725 74 307 3.0 3.0 0.00 0.00 0.00 39 1017.9
20260509214222 73 285 1.0 1.0 0.00 0.00 0.00 41 1017.9
20260509213719 73 296 2.0 2.0 0.00 0.00 0.00 41 1017.9
20260509213214 74 316 1.0 2.0 0.00 0.00 0.00 43 1018.4
20260509212712 73 321 1.0 2.0 0.00 0.00 0.00 44 1018.3
20260509212209 73 304 1.0 2.0 0.00 0.00 0.00 44 1018.3
20260509211705 73 311 1.0 1.0 0.00 0.00 0.00 47 1018.2
20260509211201 74 299 1.0 1.0 0.00 0.00 0.00 48 1018.0
20260509210658 73 300 1.0 2.0 0.00 0.00 0.00 47 1018.1
20260509210155 73 305 1.0 2.0 0.00 0.00 0.00 48 1018.3
20260509205650 73 149 2.0 3.0 0.00 0.00 0.00 46 1018.3
20260509205150 73 322 1.0 1.0 0.00 0.00 0.00 48 1018.2
20260509204646 73 257 0.0 1.0 0.00 0.00 0.00 51 1018.5
20260509204143 73 302 2.0 2.0 0.00 0.00 0.00 51 1018.4
20260509203639 73 278 1.0 1.0 0.00 0.00 0.00 53 1018.5
20260509203137 73 326 0.0 1.0 0.00 0.00 0.00 51 1018.7
20260509202637 73 289 1.0 1.0 0.00 0.00 0.00 50 1018.6
20260509202133 74 283 1.0 1.0 0.00 0.00 0.00 52 1018.7
20260509201628 74 328 0.0 1.0 0.00 0.00 0.00 50 1018.7
20260509201126 74 301 1.0 1.0 0.00 0.00 0.00 49 1018.8
20260509200621 74 19 1.0 2.0 0.00 0.00 0.00 51 1018.9
20260509200117 73 180 1.0 2.0 0.00 0.00 0.00 52 1018.8
20260509195613 72 291 2.0 2.0 0.00 0.00 0.00 56 1019.1
20260509195107 72 294 1.0 2.0 0.00 0.00 0.00 52 1019.1
20260509194607 71 291 1.0 1.0 0.00 0.00 0.00 53 1019.1
20260509194105 71 283 1.0 1.0 0.00 0.00 0.00 54 1019.0
20260509193601 71 276 0.0 1.0 0.00 0.00 0.00 57 1019.3
20260509193057 71 96 1.0 2.0 0.00 0.00 0.00 57 1019.6
20260509192553 71 302 1.0 1.0 0.00 0.00 0.00 54 1019.3
20260509192048 71 304 1.0 1.0 0.00 0.00 0.00 56 1019.6
20260509191542 71 89 2.0 2.0 0.00 0.00 0.00 58 1019.6
20260509191039 71 299 2.0 2.0 0.00 0.00 0.00 59 1019.6
20260509190536 70 295 1.0 2.0 0.00 0.00 0.00 60 1019.7
20260509190034 71 282 3.0 3.0 0.00 0.00 0.00 58 1019.8
20260509185531 70 252 1.0 1.0 0.00 0.00 0.00 58 1019.8
20260509185027 69 292 1.0 1.0 0.00 0.00 0.00 60 1019.9
20260509184526 69 281 1.0 2.0 0.00 0.00 0.00 60 1020.0
20260509184022 69 305 1.0 1.0 0.00 0.00 0.00 61 1020.1
20260509183517 69 279 1.0 1.0 0.00 0.00 0.00 60 1020.1
20260509183013 70 272 1.0 1.0 0.00 0.00 0.00 59 1020.3
20260509182510 69 100 0.0 1.0 0.00 0.00 0.00 60 1020.2
20260509182007 69 284 1.0 1.0 0.00 0.00 0.00 63 1020.2
20260509181505 68 310 0.0 1.0 0.00 0.00 0.00 63 1020.3
20260509181002 67 313 0.0 1.0 0.00 0.00 0.00 63 1020.4
20260509180457 67 136 1.0 1.0 0.00 0.00 0.00 63 1020.3
20260509175955 67 289 0.0 1.0 0.00 0.00 0.00 64 1020.4
20260509175451 66 292 1.0 1.0 0.00 0.00 0.00 67 1020.4
20260509174947 66 283 0.0 0.0 0.00 0.00 0.00 69 1020.3
20260509174443 66 298 1.0 1.0 0.00 0.00 0.00 66 1020.5
20260509173938 65 290 2.0 2.0 0.00 0.00 0.00 68 1020.7
20260509173433 64 298 0.0 1.0 0.00 0.00 0.00 70 1020.8
20260509172930 64 298 1.0 1.0 0.00 0.00 0.00 69 1020.8
20260509172427 64 301 0.0 1.0 0.00 0.00 0.00 71 1020.8
20260509171922 64 296 1.0 1.0 0.00 0.00 0.00 71 1021.0
20260509171418 64 110 1.0 2.0 0.00 0.00 0.00 69 1021.1
20260509170914 63 330 0.0 1.0 0.00 0.00 0.00 70 1021.1
20260509170411 64 291 0.0 0.0 0.00 0.00 0.00 71 1021.1
20260509165907 63 323 0.0 1.0 0.00 0.00 0.00 72 1021.1
20260509165401 62 274 1.0 2.0 0.00 0.00 0.00 75 1021.2
20260509164857 62 152 2.0 2.0 0.00 0.00 0.00 73 1021.5
20260509164353 62 300 1.0 1.0 0.00 0.00 0.00 73 1021.4
20260509163849 62 300 1.0 1.0 0.00 0.00 0.00 75 1021.4
20260509163346 61 31 1.0 1.0 0.00 0.00 0.00 74 1021.5
20260509162845 61 269 1.0 2.0 0.00 0.00 0.00 74 1021.9
20260509162344 61 301 1.0 2.0 0.00 0.00 0.00 75 1022.0
20260509161840 61 301 1.0 2.0 0.00 0.00 0.00 74 1021.5
20260509161337 61 169 1.0 2.0 0.00 0.00 0.00 74 1022.2
20260509160832 62 312 1.0 1.0 0.00 0.00 0.00 74 1022.0
20260509160329 61 309 0.0 1.0 0.00 0.00 0.00 75 1022.2
20260509155824 61 298 0.0 1.0 0.00 0.00 0.00 78 1021.9
20260509155320 60 301 1.0 1.0 0.00 0.00 0.00 77 1022.1
20260509154817 60 155 2.0 2.0 0.00 0.00 0.00 76 1021.8
20260509154313 59 308 0.0 0.0 0.00 0.00 0.00 78 1021.9
20260509153810 58 312 0.0 0.0 0.00 0.00 0.00 81 1022.0
20260509153307 60 113 0.0 1.0 0.00 0.00 0.00 79 1022.1
20260509152804 60 326 0.0 0.0 0.00 0.00 0.00 79 1022.2
20260509152259 59 291 0.0 0.0 0.00 0.00 0.00 80 1022.4
20260509151757 58 308 1.0 2.0 0.00 0.00 0.00 80 1022.4
20260509151253 58 313 0.0 0.0 0.00 0.00 0.00 82 1022.5
20260509150752 57 107 2.0 2.0 0.00 0.00 0.00 82 1022.5
20260509150250 57 329 0.0 0.0 0.00 0.00 0.00 84 1022.7
20260509145746 56 295 1.0 1.0 0.00 0.00 0.00 85 1022.6
20260509145246 56 339 1.0 2.0 0.00 0.00 0.00 85 1022.4
20260509144743 55 306 1.0 1.0 0.00 0.00 0.00 88 1022.5
20260509144239 55 330 0.0 1.0 0.00 0.00 0.00 88 1022.4
20260509143737 55 330 0.0 1.0 0.00 0.00 0.00 89 1022.2
20260509143234 55 94 2.0 2.0 0.00 0.00 0.00 89 1022.3
20260509142730 53 322 1.0 1.0 0.00 0.00 0.00 95 1022.5
20260509142226 53 309 0.0 0.0 0.00 0.00 0.00 99 1022.5
20260509141722 52 308 0.0 0.0 0.00 0.00 0.00 99 1022.4
20260509141220 51 317 0.0 0.0 0.00 0.00 0.00 99 1022.4
20260509140716 51 317 0.0 0.0 0.00 0.00 0.00 99 1022.4
20260509140213 50 306 0.0 0.0 0.00 0.00 0.00 99 1022.6
20260509135710 49 299 0.0 0.0 0.00 0.00 0.00 99 1022.4